Location: Unspecified
(47.4992°N, 121.7766°W)
Time: 15:36:05
(UTC-07:00)

ISS - Pass Details

Date: 26 April 2024
Orbit: 410 x 414 km, 51.6° (Epoch: 18 May)

Event Time Altitude Azimuth Distance (km) Brightness Sun altitude
Exits shadow 04:10:30 37° 193° (SSW) 660 -3.2 -16.1°
Maximum altitude 04:11:21 48° 148° (SSE) 549 -3.3 -16.0°
Drops below altitude 10° 04:14:34 10° 73° (ENE) 1,479 0.1 -15.6°
Sets 04:16:41 0° 67° (ENE) 2,343 1.5 -15.3°
